Time,TemperatureF,DewpointF,PressureIn,WindDirection,WindDirectionDegrees,WindSpeedMPH,WindSpeedGustMPH,Humidity,HourlyPrecipIn,Conditions,Clouds,dailyrainin,SoftwareType,DateUTC
2013-06-17 00:02:00,69.3,65.0,30.20,WSW,240,0.0,0.0,87,0.00,,,0.00,weatherlink.com 1.10,2013-06-17 04:02:00,
2013-06-17 00:17:00,69.0,65.0,30.21,WSW,240,0.0,0.0,88,0.00,,,0.00,weatherlink.com 1.10,2013-06-17 04:17:00,
2013-06-17 00:32:00,68.9,65.0,30.20,WSW,242,0.0,0.0,88,0.00,,,0.00,weatherlink.com 1.10,2013-06-17 04:32:00,
2013-06-17 00:47:00,69.1,66.0,30.20,WSW,242,0.0,0.0,88,0.00,,,0.00,weatherlink.com 1.10,2013-06-17 04:47:00,
2013-06-17 01:02:00,69.0,66.0,30.20,WSW,240,0.0,0.0,89,0.00,,,0.00,weatherlink.com 1.10,2013-06-17 05:02:00,
2013-06-17 01:17:00,69.1,66.0,30.20,WSW,242,0.0,0.0,88,0.00,,,0.00,weatherlink.com 1.10,2013-06-17 05:17:00,
2013-06-17 01:32:00,69.9,66.0,30.21,SW,224,0.0,1.0,86,0.00,,,0.00,weatherlink.com 1.10,2013-06-17 05:32:00,
2013-06-17 01:47:00,70.0,66.0,30.20,SW,224,0.0,1.0,87,0.00,,,0.00,weatherlink.com 1.10,2013-06-17 05:47:00,
2013-06-17 02:02:00,69.1,67.0,30.20,WNW,293,0.0,0.0,92,0.06,,,0.06,weatherlink.com 1.10,2013-06-17 06:02:00,
2013-06-17 02:17:00,68.4,67.0,30.20,WNW,293,0.0,0.0,94,0.06,,,0.06,weatherlink.com 1.10,2013-06-17 06:17:00,
2013-06-17 02:32:00,68.0,67.0,30.19,WNW,293,0.0,0.0,95,0.06,,,0.06,weatherlink.com 1.10,2013-06-17 06:32:00,
2013-06-17 02:47:00,67.8,66.0,30.19,WSW,248,0.0,0.0,95,0.06,,,0.06,weatherlink.com 1.10,2013-06-17 06:47:00,
2013-06-17 03:02:00,67.7,67.0,30.19,WSW,248,0.0,0.0,96,0.00,,,0.06,weatherlink.com 1.10,2013-06-17 07:02:00,
2013-06-17 03:17:00,67.7,67.0,30.18,WSW,249,0.0,0.0,96,0.00,,,0.06,weatherlink.com 1.10,2013-06-17 07:17:00,
2013-06-17 03:32:00,68.0,67.0,30.19,SW,232,0.0,1.0,96,0.00,,,0.06,weatherlink.com 1.10,2013-06-17 07:32:00,
2013-06-17 03:47:00,68.1,67.0,30.19,West,273,0.0,1.0,95,0.00,,,0.06,weatherlink.com 1.10,2013-06-17 07:47:00,
2013-06-17 04:02:00,68.0,67.0,30.19,West,266,0.0,1.0,96,0.00,,,0.06,weatherlink.com 1.10,2013-06-17 08:02:00,
2013-06-17 04:17:00,67.9,67.0,30.19,West,266,0.0,0.0,96,0.00,,,0.06,weatherlink.com 1.10,2013-06-17 08:17:00,
2013-06-17 04:32:00,67.8,67.0,30.19,West,264,0.0,0.0,96,0.00,,,0.06,weatherlink.com 1.10,2013-06-17 08:32:00,
2013-06-17 04:47:00,67.8,67.0,30.19,WNW,300,0.0,1.0,96,0.00,,,0.06,weatherlink.com 1.10,2013-06-17 08:47:00,
2013-06-17 05:02:00,67.8,67.0,30.18,WNW,302,0.0,1.0,96,0.01,,,0.07,weatherlink.com 1.10,2013-06-17 09:02:00,
2013-06-17 05:17:00,67.7,67.0,30.18,WSW,255,0.0,0.0,96,0.01,,,0.07,weatherlink.com 1.10,2013-06-17 09:17:00,
2013-06-17 05:32:00,67.4,66.0,30.18,WSW,255,0.0,0.0,96,0.01,,,0.07,weatherlink.com 1.10,2013-06-17 09:32:00,
2013-06-17 05:47:00,67.3,67.0,30.17,WSW,245,0.0,1.0,97,0.00,,,0.07,weatherlink.com 1.10,2013-06-17 09:47:00,
2013-06-17 06:02:00,67.3,66.0,30.17,WSW,243,0.0,2.0,96,0.00,,,0.07,weatherlink.com 1.10,2013-06-17 10:02:00,
2013-06-17 06:17:00,67.1,66.0,30.18,WNW,285,0.0,1.0,96,0.00,,,0.07,weatherlink.com 1.10,2013-06-17 10:17:00,
2013-06-17 06:32:00,66.9,66.0,30.18,West,270,0.0,1.0,96,0.00,,,0.07,weatherlink.com 1.10,2013-06-17 10:32:00,
2013-06-17 06:47:00,66.9,66.0,30.17,WNW,291,0.0,1.0,96,0.00,,,0.07,weatherlink.com 1.10,2013-06-17 10:47:00,
2013-06-17 07:02:00,67.1,66.0,30.17,West,270,0.0,2.0,96,0.00,,,0.07,weatherlink.com 1.10,2013-06-17 11:02:00,
2013-06-17 07:17:00,67.5,66.0,30.17,WSW,253,0.0,1.0,95,0.00,,,0.07,weatherlink.com 1.10,2013-06-17 11:17:00,
2013-06-17 07:32:00,67.6,66.0,30.18,WNW,283,1.0,3.0,95,0.00,,,0.07,weatherlink.com 1.10,2013-06-17 11:32:00,
2013-06-17 07:47:00,67.6,66.0,30.18,West,266,1.0,4.0,94,0.00,,,0.07,weatherlink.com 1.10,2013-06-17 11:47:00,
2013-06-17 08:02:00,67.6,66.0,30.18,WNW,288,0.0,5.0,94,0.00,,,0.07,weatherlink.com 1.10,2013-06-17 12:02:00,
2013-06-17 08:17:00,67.7,66.0,30.19,West,278,0.0,2.0,95,0.00,,,0.07,weatherlink.com 1.10,2013-06-17 12:17:00,
2013-06-17 08:32:00,68.1,66.0,30.18,NW,306,0.0,2.0,93,0.00,,,0.07,weatherlink.com 1.10,2013-06-17 12:32:00,
2013-06-17 08:47:00,69.4,67.0,30.18,WNW,284,2.0,3.0,91,0.00,,,0.07,weatherlink.com 1.10,2013-06-17 12:47:00,
2013-06-17 09:02:00,70.6,67.0,30.18,WNW,296,0.0,3.0,88,0.00,,,0.07,weatherlink.com 1.10,2013-06-17 13:02:00,
2013-06-17 09:17:00,71.4,67.0,30.17,WNW,283,0.0,3.0,87,0.00,,,0.07,weatherlink.com 1.10,2013-06-17 13:17:00,
2013-06-17 09:32:00,72.2,67.0,30.17,WSW,248,2.0,2.0,84,0.00,,,0.07,weatherlink.com 1.10,2013-06-17 13:32:00,
2013-06-17 09:47:00,72.1,67.0,30.17,West,274,1.0,3.0,85,0.00,,,0.07,weatherlink.com 1.10,2013-06-17 13:47:00,
2013-06-17 10:02:00,71.9,67.0,30.17,NNW,334,3.0,4.0,84,0.00,,,0.07,weatherlink.com 1.10,2013-06-17 14:02:00,
2013-06-17 10:17:00,72.0,67.0,30.18,WNW,290,1.0,3.0,84,0.00,,,0.07,weatherlink.com 1.10,2013-06-17 14:17:00,
2013-06-17 10:32:00,71.8,67.0,30.18,WSW,246,1.0,2.0,85,0.00,,,0.07,weatherlink.com 1.10,2013-06-17 14:32:00,
2013-06-17 10:47:00,72.6,68.0,30.17,NW,318,2.0,3.0,84,0.00,,,0.07,weatherlink.com 1.10,2013-06-17 14:47:00,
2013-06-17 11:03:00,74.1,68.0,30.17,WNW,294,0.0,3.0,82,0.00,,,0.07,weatherlink.com 1.10,2013-06-17 15:03:00,
2013-06-17 11:18:00,75.7,68.0,30.17,West,271,1.0,2.0,78,0.00,,,0.07,weatherlink.com 1.10,2013-06-17 15:18:00,
2013-06-17 11:33:00,76.6,69.0,30.17,SW,224,0.0,2.0,78,0.00,,,0.07,weatherlink.com 1.10,2013-06-17 15:33:00,
2013-06-17 11:48:00,76.6,69.0,30.17,WNW,302,0.0,1.0,76,0.00,,,0.07,weatherlink.com 1.10,2013-06-17 15:48:00,
2013-06-17 12:03:00,77.2,69.0,30.17,WNW,300,0.0,2.0,76,0.00,,,0.07,weatherlink.com 1.10,2013-06-17 16:03:00,
2013-06-17 13:15:00,80.5,72.0,30.17,SSW,194,0.0,3.0,75,0.00,,,0.07,weatherlink.com 1.10,2013-06-17 17:15:00,
2013-06-17 13:30:00,81.8,69.0,30.17,WNW,300,0.0,3.0,66,0.00,,,0.07,weatherlink.com 1.10,2013-06-17 17:30:00,
2013-06-17 13:45:00,80.1,69.0,30.16,ENE,71,0.0,1.0,68,0.00,,,0.07,weatherlink.com 1.10,2013-06-17 17:45:00,
2013-06-17 14:00:00,79.1,68.0,30.16,ESE,122,2.0,3.0,69,0.00,,,0.07,weatherlink.com 1.10,2013-06-17 18:00:00,
2013-06-17 14:15:00,78.3,67.0,30.15,West,270,2.0,3.0,69,0.00,,,0.07,weatherlink.com 1.10,2013-06-17 18:15:00,
2013-06-17 14:30:00,76.0,66.0,30.15,NW,307,0.0,4.0,72,0.00,,,0.07,weatherlink.com 1.10,2013-06-17 18:30:00,
2013-06-17 14:45:00,73.7,66.0,30.16,WSW,241,4.0,8.0,77,0.00,,,0.07,weatherlink.com 1.10,2013-06-17 18:45:00,
2013-06-17 15:00:00,69.3,66.0,30.17,WSW,238,2.0,4.0,89,0.01,,,0.08,weatherlink.com 1.10,2013-06-17 19:00:00,
2013-06-17 15:15:00,67.7,65.0,30.16,NNE,26,0.0,4.0,91,0.02,,,0.09,weatherlink.com 1.10,2013-06-17 19:15:00,
2013-06-17 15:30:00,67.6,66.0,30.14,ENE,60,0.0,1.0,94,0.03,,,0.10,weatherlink.com 1.10,2013-06-17 19:30:00,
2013-06-17 15:45:00,70.5,68.0,30.13,SE,125,0.0,2.0,91,0.03,,,0.10,weatherlink.com 1.10,2013-06-17 19:45:00,
2013-06-17 16:01:00,73.2,69.0,30.12,NE,41,2.0,3.0,85,0.02,,,0.10,weatherlink.com 1.10,2013-06-17 20:01:00,
2013-06-17 16:16:00,73.5,68.0,30.12,WSW,256,1.0,2.0,83,0.01,,,0.10,weatherlink.com 1.10,2013-06-17 20:16:00,
2013-06-17 16:31:00,74.4,67.0,30.11,North,354,0.0,1.0,78,0.00,,,0.10,weatherlink.com 1.10,2013-06-17 20:31:00,
2013-06-17 16:46:00,74.0,68.0,30.12,WNW,291,0.0,1.0,80,0.00,,,0.10,weatherlink.com 1.10,2013-06-17 20:46:00,
2013-06-17 17:01:00,74.3,68.0,30.12,NE,54,0.0,2.0,80,0.00,,,0.10,weatherlink.com 1.10,2013-06-17 21:01:00,
2013-06-17 17:16:00,74.5,68.0,30.11,SE,135,0.0,1.0,81,0.00,,,0.10,weatherlink.com 1.10,2013-06-17 21:16:00,
2013-06-17 17:31:00,75.8,68.0,30.12,West,269,0.0,2.0,77,0.00,,,0.10,weatherlink.com 1.10,2013-06-17 21:31:00,
2013-06-17 17:46:00,76.6,68.0,30.11,SE,124,0.0,1.0,75,0.00,,,0.10,weatherlink.com 1.10,2013-06-17 21:46:00,
2013-06-17 18:01:00,77.1,69.0,30.10,WSW,248,0.0,2.0,75,0.00,,,0.10,weatherlink.com 1.10,2013-06-17 22:01:00,
2013-06-17 18:16:00,78.0,69.0,30.11,West,262,2.0,3.0,73,0.00,,,0.10,weatherlink.com 1.10,2013-06-17 22:16:00,
2013-06-17 18:31:00,78.8,69.0,30.11,WNW,291,1.0,3.0,72,0.00,,,0.10,weatherlink.com 1.10,2013-06-17 22:31:00,
2013-06-17 18:46:00,78.3,69.0,30.10,WSW,245,2.0,3.0,72,0.00,,,0.10,weatherlink.com 1.10,2013-06-17 22:46:00,
2013-06-17 19:01:00,76.8,68.0,30.11,WNW,294,1.0,6.0,75,0.00,,,0.10,weatherlink.com 1.10,2013-06-17 23:01:00,
2013-06-17 19:17:00,76.0,69.0,30.11,West,262,1.0,3.0,78,0.00,,,0.10,weatherlink.com 1.10,2013-06-17 23:17:00,
2013-06-17 19:31:00,75.4,69.0,30.11,WNW,290,1.0,3.0,80,0.00,,,0.10,weatherlink.com 1.10,2013-06-17 23:31:00,
2013-06-17 19:46:00,74.5,68.0,30.11,West,264,1.0,3.0,81,0.00,,,0.10,weatherlink.com 1.10,2013-06-17 23:46:00,
2013-06-17 20:01:00,74.0,69.0,30.11,West,273,0.0,2.0,83,0.00,,,0.10,weatherlink.com 1.10,2013-06-18 00:01:00,
2013-06-17 20:16:00,73.8,69.0,30.11,NW,305,0.0,1.0,85,0.00,,,0.10,weatherlink.com 1.10,2013-06-18 00:16:00,
2013-06-17 20:31:00,73.2,70.0,30.11,NW,304,0.0,0.0,88,0.01,,,0.11,weatherlink.com 1.10,2013-06-18 00:31:00,
2013-06-17 20:46:00,72.2,70.0,30.11,WSW,253,1.0,2.0,91,0.01,,,0.11,weatherlink.com 1.10,2013-06-18 00:46:00,
2013-06-17 21:01:00,71.3,68.0,30.11,WSW,250,0.0,2.0,89,0.01,,,0.11,weatherlink.com 1.10,2013-06-18 01:01:00,
2013-06-17 21:16:00,70.2,67.0,30.12,NW,324,0.0,1.0,89,0.01,,,0.11,weatherlink.com 1.10,2013-06-18 01:16:00,
2013-06-17 21:31:00,69.5,67.0,30.11,NW,323,0.0,0.0,91,0.00,,,0.11,weatherlink.com 1.10,2013-06-18 01:31:00,
2013-06-17 21:46:00,68.7,67.0,30.12,ESE,112,0.0,2.0,93,0.00,,,0.11,weatherlink.com 1.10,2013-06-18 01:46:00,
2013-06-17 22:01:00,68.5,67.0,30.12,West,267,1.0,1.0,93,0.01,,,0.12,weatherlink.com 1.10,2013-06-18 02:01:00,
2013-06-17 22:16:00,68.2,66.0,30.13,West,276,0.0,1.0,93,0.02,,,0.13,weatherlink.com 1.10,2013-06-18 02:16:00,
2013-06-17 22:31:00,67.6,66.0,30.13,West,266,0.0,0.0,94,0.02,,,0.13,weatherlink.com 1.10,2013-06-18 02:31:00,
2013-06-17 22:46:00,67.0,66.0,30.12,West,266,0.0,0.0,95,0.02,,,0.13,weatherlink.com 1.10,2013-06-18 02:46:00,
2013-06-17 23:01:00,66.8,66.0,30.13,West,266,0.0,0.0,96,0.01,,,0.13,weatherlink.com 1.10,2013-06-18 03:01:00,
2013-06-17 23:16:00,66.8,66.0,30.12,West,266,0.0,0.0,96,0.00,,,0.13,weatherlink.com 1.10,2013-06-18 03:16:00,
2013-06-17 23:31:00,66.7,66.0,30.12,West,266,0.0,0.0,96,0.00,,,0.13,weatherlink.com 1.10,2013-06-18 03:31:00,
2013-06-17 23:46:00,66.7,66.0,30.12,West,266,0.0,0.0,96,0.00,,,0.13,weatherlink.com 1.10,2013-06-18 03:46:00,